GGSE 5

Satellite information

Favourite Embed

Satellite Type and Status

PAYLOADIN ORBIT

Key statistics

Satellite GGSE 5 at a glance.

Uptime

21162

Days in orbit

Revolutions

≈ 14.0

Per day

Orbit

LEO

Low Earth Orbit

Inclination

70.0

Latest

Satellite identification and parameters

Extended collection of information and parameters for GGSE 5.

Object identification

Identified? True

Debris? False

Object name: GGSE 5

International designator: 1967-053D

Object number (NORAD): 2834

Object ID (CCSDS): 2834

Country: UNITED STATES OF AMERICA (US)

Current information (Y/N): Y

RCS size: MEDIUM

Orbital parameters

Period: 103.143 minutes

Inclination: 69.9722 deg

SMA: 7285.379 km

Apoapsis: 912.448 km

Periapsis: 902.04 km

RAAN: 281.0193 deg

Eccentricy: 0.0007143

Argument of periapsis: 354.3197 deg

Mean anomaly: 5.7826 deg

Mean motion: 13.96125748 rev/day

Mean motion (dot): 0.00000025 rev/day2

B* drag term: 0.000057149 1/REarth

Two-line elements (TLE)

Creation date: May 8, 2025, 3:01 a.m.

Reference frame: TEME

Reference center: EARTH

Epoch: May 7, 2025, 7:25 p.m. UTC

TLE line 0: 0 GGSE 5

TLE line 1: 1 02834U 67053D 25127.80950170 .00000025 00000-0 57149-4 0 9992

TLE line 2: 2 02834 69.9722 281.0193 0007143 354.3197 5.7826 13.96125748949551

Live tracking on map

Real-time ground track for satellite GGSE 5.

In-orbit conjunctions

A list of the most updated potential collisions computed for object GGSE 5.

Target Orbit TCA Probability of collision Miss distance Type
NOAA 16 DEB SSO 2025-02-16 09:00:45 0.000700064 402.0 (m) DEBRIS
THORAD AGENA D DEB SSO 2024-12-23 23:02:57 0.0005251601 303.0 (m) DEBRIS

Associated space launch

Poppy was the follow-on ELINT system, which succeeded the Grab ELINT satellite system.

GGSE 5 was lifted into orbit during the mission ‘Thor SLV-2 Agena D | Poppy 7A,B,C,D’, on board a Thor SLV-2 Agena D space rocket.

The launch took place on May 31, 1967, 9:30 a.m. from Space Launch Complex 2W.

For more information about the launch, click the button.

Launch to space Thor SLV-2 Agena D | Poppy 7A,B,C,D
Thor SLV-2 Agena D | Poppy 7A,B,C,D

Agency: N/A

Status: Launch Successful

Launch date: May 31, 1967, 9:30 a.m. UTC

Rocket: Thor SLV-2 Agena D

Launch pad: Space Launch Complex 2W

Location: Vandenberg SFB, CA, USA

...

Latest news about this satellite

There are no fresh news available about this satellite. Check back as we update our databases every day.


Newsletter sign-up

Weekly statistics, charts and insights to help you stay on top of the space industry.